Content
SEND FEEDBACK

Daily
Averages
Monthly
Summary
United States of America

HALIFAX, NORTH CAROLINA


Home > North America > United States > North Carolina
Elevation: 6 feet     Latitude: 36 12N     Longitude: 077 23W

WEATHER
 
SELECT A DAY
Number of Records: 386,877;   Date Range: 11/20/97 - 9/18/14
 
SHARE

PRINT THIS DATA

[ ← Previous Day ]
WEATHER ALMANAC - FEBRUARY 13, 2013
[ Next Day → ]
[ °C ]   °F
Weather ElementAverageHighLow
Temperature46.2 °F47.8 °F (3:55 pm)45.1 °F (12:35 am)
Dewpoint43 °F45.7 °F (3:55 pm)39 °F (3:55 am)
Humidity88.6 %93 % (4:35 pm)73 % (3:15 am)
Barometer29.77 in29.96 in (12:35 am)29.62 in (4:15 pm)
Wind Speed1.3 mph5.8 mph (3:35 pm)
Weather ElementAverage
Visibility8 mi
Wind DirectionENE (59.9 °)

Weather ElementTotal
Precipitation0.19 in
Heating Degree Days18.6 (Base 65)
Averaged from 71 records on February 13, 2013
WEATHER CONDITIONS BREAKOUT
WIND DIRECTION BREAKOUT
WEATHER BY HOUR - FEBRUARY 13, 2013
[ °C ]   °F
Local TimeTemperatureDewpointHumidityBarometerVisibilityWind DirectionWind SpeedGust SpeedPrecipitationEventsConditions
12:35 AM45.1 °F39.7 °F81 %29.96 in10.0 miCalmMostly Cloudy
12:55 AM45.1 °F40.1 °F82 %29.96 in10.0 miCalmOvercast
1:15 AM45.1 °F39.7 °F81 %29.95 in10.0 miCalmOvercast
1:35 AM45.1 °F39.7 °F81 %29.94 in10.0 miNorth (10°)3.5 mphRainLight Rain
1:55 AM45.1 °F40.5 °F84 %29.92 in10.0 miCalmOvercast
2:15 AM45.3 °F39.2 °F79 %29.92 in10.0 miNNW (340°)3.5 mphOvercast
2:35 AM46.2 °F40.3 °F80 %29.91 in10.0 miCalmOvercast
2:55 AM45.1 °F40.1 °F82 %29.87 in10.0 miCalmOvercast
3:15 AM47.3 °F39.2 °F73 %29.87 in10.0 miNorth (10°)3.5 mphMostly Cloudy
3:35 AM45.7 °F39.7 °F80 %29.88 in10.0 miCalmMostly Cloudy
3:55 AM45.1 °F39.0 °F79 %29.89 in10.0 miCalmMostly Cloudy
4:15 AM45.1 °F40.3 °F83 %29.86 in10.0 miNNE (30°)4.6 mphLight Drizzle
4:35 AM45.1 °F39.6 °F81 %29.83 in10.0 miSE (130°)4.6 mphMostly Cloudy
4:55 AM45.1 °F40.1 °F82 %29.86 in10.0 miCalmRainLight Rain
5:15 AM45.1 °F41.2 °F86 %29.86 in10.0 miCalmLight Drizzle
5:35 AM45.1 °F40.5 °F84 %29.84 in10.0 miESE (120°)3.5 mphMostly Cloudy
5:55 AM45.1 °F41.4 °F87 %29.84 in10.0 miCalmRainRain
6:15 AM45.1 °F42.1 °F89 %29.83 in10.0 miCalmRainRain
6:35 AM45.1 °F42.1 °F89 %29.83 in10.0 miCalm0.01 inRainLight Rain
6:55 AM45.1 °F42.4 °F90 %29.82 in10.0 miCalm0.01 inRainLight Rain
7:15 AM45.1 °F42.4 °F90 %29.85 in10.0 miCalmRainRain
7:35 AM45.1 °F42.4 °F90 %29.86 in10.0 miCalm0.01 inRainRain
7:55 AM45.1 °F42.6 °F91 %29.87 in10.0 miCalm0.02 inRainRain
8:15 AM45.1 °F42.8 °F91 %29.87 in10.0 miCalm0.01 inRainLight Rain
8:35 AM45.1 °F42.8 °F91 %29.87 in10.0 miCalm0.01 inRainLight Rain
8:55 AM45.1 °F42.8 °F91 %29.86 in10.0 miCalm0.01 inRainRain
9:15 AM45.1 °F42.8 °F91 %29.84 in10.0 miCalm0.01 inRainRain
9:35 AM45.1 °F42.8 °F91 %29.85 in10.0 miCalm0.01 inLight Drizzle
9:55 AM45.1 °F42.4 °F90 %29.83 in10.0 miCalm0.01 inOvercast
10:15 AM45.5 °F43.2 °F92 %29.82 in10.0 miCalmOvercast
10:35 AM45.1 °F42.4 °F90 %29.81 in10.0 miCalmOvercast
10:55 AM46.4 °F43.3 °F89 %29.79 in10.0 miCalmOvercast
11:15 AM46.4 °F43.2 °F88 %29.79 in10.0 miNorth (350°)3.5 mphOvercast
11:35 AM46.4 °F43.5 °F90 %29.78 in10.0 miNNW (340°)4.6 mphOvercast
11:55 AM46.4 °F43.3 °F89 %29.78 in7.0 miNNW (330°)3.5 mphOvercast
12:15 PM46.4 °F43.3 °F89 %29.74 in7.0 miNorth (350°)3.5 mphOvercast
12:35 PM46.9 °F44.1 °F90 %29.70 in7.0 miNNE (30°)4.6 mphDrizzle
12:55 PM46.9 °F43.9 °F89 %29.71 in7.0 miNNE (30°)3.5 mphOvercast
1:15 PM47.5 °F44.8 °F90 %29.69 in7.0 miEast (80°)3.5 mphOvercast
1:35 PM47.5 °F44.8 °F90 %29.67 in10.0 miEast (90°)4.6 mphOvercast
1:55 PM47.5 °F44.6 °F90 %29.65 in10.0 miEast (100°)4.6 mphOvercast
2:15 PM47.5 °F44.8 °F90 %29.63 in3.0 miCalmRainRain
2:35 PM47.5 °F45.0 °F91 %29.63 in2.5 miCalmRainRain
2:55 PM47.5 °F45.0 °F91 %29.65 in1.8 miCalmHeavy Drizzle
3:15 PM47.5 °F45.1 °F92 %29.64 in1.8 miSE (140°)3.5 mph0.01 inHeavy Drizzle
3:35 PM47.5 °F45.1 °F92 %29.63 in2.5 miSE (130°)5.8 mph0.01 inDrizzle
3:55 PM47.8 °F45.7 °F92 %29.64 in2.0 miCalm0.01 inDrizzle
4:15 PM47.5 °F45.1 °F92 %29.62 in1.8 miCalm0.01 inHeavy Drizzle
4:35 PM47.5 °F45.5 °F93 %29.63 in2.0 miCalm0.01 inDrizzle
4:55 PM47.5 °F45.5 °F93 %29.63 in2.5 miCalm0.01 inLight Drizzle
5:15 PM47.5 °F45.5 °F93 %29.62 in2.0 miCalmRainRain
5:35 PM47.5 °F45.5 °F93 %29.62 in1.2 miCalmRainHeavy Rain
5:55 PM47.5 °F45.5 °F93 %29.63 in3.0 miCalmDrizzle
6:15 PM47.5 °F45.5 °F93 %29.64 in2.5 miCalmLight Drizzle
6:35 PM47.5 °F45.5 °F93 %29.65 in2.5 miCalm0.01 inDrizzle
6:55 PM47.5 °F45.5 °F93 %29.64 in3.0 miCalm0.01 inRainRain
7:15 PM47.5 °F45.5 °F93 %29.65 in5.0 miCalmOvercast
7:35 PM47.5 °F45.5 °F93 %29.65 in7.0 miCalmOvercast
7:55 PM47.5 °F45.5 °F93 %29.67 in10.0 miWest (260°)3.5 mphOvercast
8:15 PM47.5 °F45.5 °F93 %29.67 in10.0 miCalmOvercast
8:35 PM47.5 °F45.1 °F92 %29.68 in10.0 miCalmOvercast
8:55 PM47.5 °F45.0 °F91 %29.69 in10.0 miWest (280°)4.6 mphOvercast
9:15 PM46.8 °F44.1 °F90 %29.70 in10.0 miWest (270°)3.5 mphOvercast
9:35 PM46.6 °F43.9 °F90 %29.71 in10.0 miCalmOvercast
9:55 PM46.4 °F43.3 °F89 %29.72 in10.0 miCalmMostly Cloudy
10:15 PM45.1 °F42.4 °F90 %29.73 in10.0 miCalmMostly Cloudy
10:35 PM45.7 °F43.0 °F90 %29.73 in10.0 miCalmOvercast
10:55 PM46.0 °F43.2 °F90 %29.73 in10.0 miCalmOvercast
11:15 PM45.1 °F42.3 °F90 %29.75 in10.0 miWSW (240°)3.5 mphMostly Cloudy
11:35 PM45.1 °F42.1 °F89 %29.76 in10.0 miWest (270°)4.6 mphMostly Cloudy
11:55 PM45.3 °F42.1 °F88 %29.77 in10.0 miNW (320°)5.8 mphOvercast
Hourly data recorded from KASJ, located miles away from Halifax, North Carolina







STORIES FROM OUR PARTNERS